Location: Chuathbaluk
(61.5726°N, 159.2454°W)
Time: 04:31:07
(UTC+00:00)

Transit 2A - Pass Details

Date: 03 December 2020
Orbit: 599 x 960 km, 66.7° (Epoch: 26 January)

Event Time Altitude Azimuth Distance (km) Brightness Sun altitude
Rises 06:37:57 0° 266° (W) 3,553 10.3 -34.8°
Reaches altitude 10° 06:40:38 10° 271° (W) 2,570 9.4 -35.1°
Enters shadow 06:44:45 40° 298° (WNW) 1,250 7.4 -35.5°
Maximum altitude 06:46:29 54° 349° (NNW) 1,018 - -35.7°
Drops below altitude 10° 06:51:47 10° 67° (ENE) 2,339 - -36.3°
Sets 06:54:08 0° 72° (ENE) 3,209 - -36.6°
